Location: Chilton Park
(37.7711°N, 100.0276°W)
Time: 09:52:45
(UTC+00:00)

Cosmos 1898 Rocket - Pass Details

Date: 08 July 2022
Orbit: 753 x 783 km, 74.0° (Epoch: 14 August)

Event Time Altitude Azimuth Distance (km) Brightness Sun altitude
Rises 08:02:01 0° 334° (NNW) 3,212 7.3 -27.1°
Reaches altitude 10° 08:04:28 10° 328° (NNW) 2,284 6.4 -27.0°
Enters shadow 08:08:11 38° 292° (WNW) 1,149 4.3 -26.7°
